Location: Beadle
(51.4667°N, 109.0000°W)
Time: 05:11:19
(UTC+00:00)

Envisat - Pass Details

Date: 20 January 2022
Orbit: 764 x 765 km, 98.2° (Epoch: 25 May)

Event Time Altitude Azimuth Distance (km) Brightness Sun altitude
Rises 00:58:03 0° 225° (SW) 3,223 7.5 -11.3°
Reaches altitude 10° 01:02:13 10° 259° (WSW) 2,304 7.0 -11.9°
Maximum altitude 01:03:47 11° 277° (W) 2,214 6.5 -12.2°
Drops below altitude 10° 01:05:22 10° 295° (WNW) 2,309 6.2 -12.4°
Sets 01:09:35 0° 329° (NNW) 3,243 6.4 -13.0°
